Probability
4 5 6 6 6 6 6 5 5 5 2 1 1 0 0 0 0 0 0 0 0 0 0 0 0 0 0 0 0 0 0 0 0 0 1 1 1 1
4 5 6 6 6 6 6 7 8 7 4 2 1 0 0 0 0 0 0 0 0 0 0 0 0 0 0 0 0 0 0 0 0 0 0 0 0 1
4 5 5 6 6 6 7 9 11 10 6 3 2 1 0 0 0 0 0 0 0 0 0 0 0 0 0 0 0 0 0 0 0 0 0 0 0 0
4 4 4 4 5 6 7 9 10 9 7 4 2 1 0 0 0 0 0 0 0 1 1 1 0 0 0 0 0 0 0 0 0 0 0 0 0 0
3 3 3 4 5 5 5 5 5 6 6 4 2 2 1 1 1 0 0 1 1 2 2 2 1 1 0 0 0 0 0 0 0 0 0 0 0 0
3 2 3 3 4 3 2 2 2 3 3 2 1 2 2 2 1 1 1 2 3 3 3 3 3 2 1 1 0 0 0 0 0 0 0 0 0 0
2 2 2 1 1 1 1 0 1 1 1 1 1 2 3 4 3 3 3 4 4 4 3 3 3 3 3 2 1 1 0 0 0 0 0 0 0 0
2 1 1 0 0 0 0 0 0 0 0 0 1 2 4 5 5 4 4 5 5 5 4 3 3 3 3 3 2 1 0 0 0 0 0 0 0 0
2 1 1 1 0 0 0 0 0 0 0 1 1 2 3 4 4 4 4 4 5 5 4 3 3 3 3 3 2 1 0 0 0 0 0 0 0 0
1 1 2 2 1 0 0 1 1 0 0 0 0 1 1 2 4 5 5 4 4 4 3 3 3 3 3 2 1 0 0 0 0 0 0 0 0 0
0 0 1 1 1 0 1 2 1 0 0 0 0 0 0 1 2 3 5 5 4 4 3 3 3 3 2 1 0 0 0 0 0 0 0 0 0 0
0 0 0 0 0 0 1 1 1 0 1 1 1 0 0 1 1 2 4 5 6 5 4 3 3 2 1 0 0 0 0 0 0 0 0 0 0 0
0 0 0 0 0 0 0 0 0 0 1 2 1 0 0 1 2 3 3 5 6 6 5 3 3 2 1 0 0 0 0 0 0 0 0 0 0 0
0 0 0 0 0 0 0 0 0 0 1 2 1 0 0 2 3 3 3 4 5 5 5 4 3 3 2 0 0 0 0 0 0 0 0 0 0 0
0 0 0 0 0 0 0 0 0 0 0 0 0 0 1 2 3 3 3 3 3 4 4 4 3 4 3 1 0 0 0 0 0 0 0 0 0 0
0 0 0 0 0 0 0 0 0 0 0 0 0 0 1 2 3 3 3 3 4 4 4 4 3 4 4 2 0 0 0 0 0 1 1 1 1 0
0 0 0 0 1 1 0 0 0 0 0 0 0 1 1 3 3 3 3 4 5 5 5 4 4 5 5 3 1 0 0 0 1 2 2 2 1 1
1 1 1 1 2 2 1 0 0 1 0 0 1 2 3 3 3 3 4 5 7 7 6 6 6 6 5 3 1 1 1 1 2 3 3 2 1 1
2 2 2 3 3 3 2 1 0 1 1 1 2 2 3 3 3 3 3 5 7 7 6 6 6 6 6 4 2 1 1 3 3 3 3 3 2 2
3 3 3 3 3 3 2 1 0 0 1 2 1 1 2 2 3 3 3 4 5 5 5 4 5 5 5 5 3 1 1 3 3 3 3 3 3 2
2 2 2 2 2 2 1 0 0 0 1 1 1 0 1 1 1 2 3 3 3 4 3 3 2 2 3 4 3 2 2 2 2 2 3 3 3 2
1 1 1 1 1 1 0 0 0 0 0 0 0 0 0 0 0 1 2 3 3 3 3 2 1 1 2 2 1 1 2 2 2 1 1 2 2 2
0 0 0 0 0 0 0 0 0 0 0 0 0 0 0 0 1 1 1 2 3 3 3 2 1 0 1 1 0 0 1 2 2 1 0 1 1 1
Wind_Speed
2 2 2 1 1 2 2 2 2 2 3 2 2 2 2 2 2 2 3 4 4 4 5 5 5 5 5 6 5 5 5 5 5 5 5 6 6 7
1 1 1 1 1 1 1 2 2 3 3 2 2 2 2 3 2 2 3 4 4 4 5 5 5 5 6 5 5 5 5 5 5 5 5 5 5 6
1 1 1 1 1 1 0 1 1 2 3 3 2 2 2 3 3 2 2 3 3 5 6 6 6 6 6 6 6 6 6 6 6 6 5 6 5 6
1 1 2 1 1 1 0 1 1 2 2 3 2 2 2 3 3 3 3 2 3 5 6 6 6 7 7 7 7 6 6 6 7 6 6 6 6 7
1 1 2 1 1 1 1 1 1 1 1 2 3 2 2 2 2 2 3 2 3 3 5 5 6 7 7 7 7 7 6 7 7 7 7 7 7 7
1 1 1 1 1 1 1 1 1 1 1 1 2 2 2 2 1 2 2 2 3 3 3 3 5 6 6 6 7 7 7 7 7 7 7 7 7 7
1 1 1 1 0 0 1 1 1 1 1 1 2 2 2 2 2 2 3 3 3 2 2 3 3 3 4 5 7 7 7 7 7 7 7 7 7 7
1 2 1 1 2 1 1 0 1 1 2 2 2 3 4 3 3 3 2 2 3 1 2 3 2 3 3 3 5 7 7 7 7 6 7 7 7 7
1 1 1 1 1 1 2 2 2 2 3 3 3 4 4 4 3 4 3 3 4 3 2 4 3 4 4 4 5 7 7 7 7 7 6 7 7 6
1 1 1 2 2 1 1 2 2 2 3 2 3 4 4 4 4 4 4 4 4 3 2 3 3 3 4 3 5 6 7 7 7 6 6 6 7 7
1 1 1 2 3 1 0 2 3 3 2 2 3 4 4 4 2 1 2 2 4 3 2 2 2 3 3 3 3 4 5 6 6 6 6 6 6 6
2 2 2 2 3 1 1 1 2 4 4 4 3 4 4 3 2 2 2 3 3 3 2 2 2 2 3 2 2 2 3 4 5 6 6 6 5 4
2 2 3 3 3 2 2 2 4 3 3 3 3 3 3 3 3 3 3 3 4 4 2 2 2 2 2 3 3 3 3 3 3 3 4 5 5 5
3 2 3 3 3 2 2 2 3 2 1 2 2 3 3 4 4 4 4 5 5 6 4 3 3 3 3 3 3 3 3 3 2 2 2 2 4 5
2 3 4 3 2 2 2 3 2 1 1 2 3 4 4 4 4 4 4 4 5 5 4 4 4 3 3 4 3 3 3 3 2 2 2 2 2 2
2 2 2 2 1 2 2 2 1 1 2 3 3 4 3 3 3 3 3 3 3 4 3 3 4 4 4 4 4 4 3 3 2 2 2 2 2 2
1 1 1 1 1 2 2 2 2 1 2 2 3 3 3 4 4 3 3 3 3 4 4 3 3 3 5 4 4 4 3 3 3 3 2 3 3 3
2 1 2 2 2 3 3 3 2 3 3 3 3 3 4 4 4 3 3 3 4 4 4 3 3 2 2 3 4 4 3 3 3 3 3 3 4 3
1 2 3 3 3 3 3 3 3 3 2 3 3 3 4 4 4 4 4 4 4 4 4 3 2 2 3 5 3 3 4 3 3 3 3 3 4 4
2 2 3 3 3 3 3 3 3 3 3 3 3 4 4 4 4 4 4 5 5 4 4 3 3 3 4 5 4 4 4 4 3 4 3 3 3 3
2 3 3 3 3 3 3 3 3 3 3 3 4 4 4 4 4 5 5 5 5 4 5 5 4 5 3 2 3 3 3 4 4 4 3 3 3 3
3 3 3 3 3 3 3 3 3 3 3 3 4 4 4 4 5 6 5 5 5 5 5 4 3 2 2 3 4 4 4 4 3 3 3 4 3 3
3 3 3 4 3 3 3 3 4 4 4 4 4 4 5 5 5 4 5 5 4 5 4 4 3 2 3 3 3 4 5 4 3 2 3 4 3 4
Wind_Direction
228 220 222 241 221 223 218 209 205 246 274 274 273 275 270 262 270 261 262 265 260 258 254 254 255 250 247 245 243 245 249 249 249 250 247 243 246 248
231 227 256 266 265 254 236 224 212 212 244 259 257 276 290 293 288 268 258 273 264 262 258 252 250 251 249 247 243 243 242 243 244 245 245 242 243 248
273 245 266 263 264 279 258 229 229 213 235 265 266 276 271 287 307 291 269 258 267 263 259 252 248 248 249 247 247 245 244 247 247 246 247 242 240 247
272 271 278 271 283 276 239 229 231 228 231 264 282 287 275 284 291 291 292 284 274 266 259 258 253 250 250 249 248 246 246 247 247 248 247 244 242 245
250 245 261 255 275 283 246 248 255 255 241 257 283 283 280 293 300 300 303 301 293 278 261 259 263 260 253 249 249 250 249 249 246 246 246 243 243 245
257 248 247 231 244 250 241 257 260 270 272 269 284 292 286 298 294 294 304 305 299 295 289 284 276 269 265 260 256 253 249 247 245 241 242 241 243 244
321 306 284 282 273 253 267 262 252 242 261 277 285 293 296 304 299 287 286 299 291 279 294 292 286 279 272 261 258 253 248 245 244 238 235 239 242 243
320 325 313 337 331 322 324 293 204 222 242 251 266 272 278 279 289 290 289 300 298 288 291 291 285 283 280 265 257 251 247 244 240 239 240 241 241 242
245 304 317 335 341 335 321 321 302 277 223 222 248 261 270 269 275 281 276 273 271 284 283 284 285 287 288 284 268 258 251 245 241 241 241 240 237 240
268 238 274 320 327 324 313 329 311 294 266 241 247 262 269 267 251 255 268 277 278 264 249 271 286 289 295 283 268 255 251 247 245 244 242 240 237 237
312 325 273 280 301 299 311 311 318 317 299 282 273 281 290 293 279 278 281 280 290 284 238 253 278 294 290 279 274 263 259 254 252 248 241 238 237 237
305 298 275 276 295 259 231 265 298 302 316 320 316 314 311 310 295 251 255 271 283 278 238 245 273 305 295 284 296 298 284 270 260 250 240 235 232 230
260 278 284 291 287 267 228 240 261 276 295 304 310 318 320 316 305 286 259 252 260 263 254 241 264 270 263 286 294 286 284 289 280 262 245 232 222 218
239 262 279 289 289 276 246 271 274 280 299 313 316 315 312 308 305 300 285 269 257 263 261 240 246 244 257 272 280 286 289 289 277 270 269 237 224 224
246 260 278 286 286 278 280 284 280 278 291 296 292 289 287 289 297 301 302 292 280 272 263 247 249 249 247 254 263 271 284 281 261 272 276 259 250 232
263 279 284 286 282 283 296 291 269 258 250 265 277 283 291 297 301 304 304 312 305 301 290 263 248 242 250 255 255 262 265 260 261 274 279 278 266 241
222 251 280 284 289 296 301 296 281 275 269 274 279 291 299 299 299 298 291 296 289 297 310 316 298 272 257 249 256 256 258 267 264 266 269 279 274 255
166 230 261 269 269 273 279 283 273 271 272 275 276 281 290 295 299 302 294 287 286 285 288 298 311 316 311 289 244 247 258 265 268 255 255 263 267 264
196 249 257 263 268 271 270 269 273 278 274 273 274 279 283 289 294 295 294 290 287 285 285 284 278 282 295 303 289 240 258 273 267 261 256 255 261 266
248 258 262 264 265 267 266 266 273 284 282 279 279 280 279 283 290 293 289 286 286 285 287 288 277 273 271 277 281 286 264 258 261 261 268 276 275 272
264 267 268 270 272 269 267 267 269 275 284 285 283 282 282 282 287 291 289 284 280 278 277 281 281 280 283 276 282 292 292 274 258 257 257 256 267 259
274 274 276 274 272 271 270 269 274 279 284 281 285 289 287 283 283 285 287 285 280 279 282 287 295 295 278 271 284 292 296 309 312 293 276 251 239 232
267 272 277 277 272 268 267 266 269 275 278 279 281 284 287 286 282 279 282 284 283 283 287 292 299 298 292 282 282 287 291 302 312 322 317 312 277 264